Time,TemperatureF,DewpointF,PressureIn,WindDirection,WindDirectionDegrees,WindSpeedMPH,WindSpeedGustMPH,Humidity,HourlyPrecipIn,Conditions,Clouds,dailyrainin,SolarRadiationWatts/m^2,SoftwareType,DateUTC
2013-02-14 00:12:00,41.6,35.0,30.03,West,261,1.0,-999.0,76,-99.99,,,0.00,0,weatherlink.com 1.10,2013-02-14 06:12:00,
2013-02-14 00:27:00,41.3,34.0,30.02,West,261,0.0,-999.0,76,-99.99,,,0.00,0,weatherlink.com 1.10,2013-02-14 06:27:00,
2013-02-14 00:42:00,41.4,34.0,30.02,West,261,0.0,-999.0,76,-99.99,,,0.00,0,weatherlink.com 1.10,2013-02-14 06:42:00,
2013-02-14 00:57:00,41.4,34.0,30.03,West,261,0.0,-999.0,76,-99.99,,,0.00,0,weatherlink.com 1.10,2013-02-14 06:57:00,
2013-02-14 01:12:00,41.3,34.0,30.03,West,261,0.0,-999.0,75,-99.99,,,0.00,0,weatherlink.com 1.10,2013-02-14 07:12:00,
2013-02-14 01:27:00,41.2,34.0,30.02,West,261,0.0,-999.0,75,-99.99,,,0.00,0,weatherlink.com 1.10,2013-02-14 07:27:00,
2013-02-14 01:42:00,41.2,34.0,30.03,West,261,3.0,-999.0,75,-99.99,,,0.00,0,weatherlink.com 1.10,2013-02-14 07:42:00,
2013-02-14 01:57:00,41.0,33.0,30.02,West,261,2.0,-999.0,74,-99.99,,,0.00,0,weatherlink.com 1.10,2013-02-14 07:57:00,
2013-02-14 02:12:00,41.1,33.0,30.02,West,261,0.0,-999.0,73,-99.99,,,0.00,0,weatherlink.com 1.10,2013-02-14 08:12:00,
2013-02-14 02:27:00,41.3,33.0,30.02,West,261,0.0,-999.0,73,-99.99,,,0.00,0,weatherlink.com 1.10,2013-02-14 08:27:00,
2013-02-14 02:42:00,41.4,33.0,30.02,West,261,0.0,-999.0,72,-99.99,,,0.00,0,weatherlink.com 1.10,2013-02-14 08:42:00,
2013-02-14 02:57:00,41.4,33.0,30.02,West,261,0.0,-999.0,72,-99.99,,,0.00,0,weatherlink.com 1.10,2013-02-14 08:57:00,
2013-02-14 03:12:00,41.6,33.0,30.02,West,261,0.0,-999.0,71,-99.99,,,0.00,0,weatherlink.com 1.10,2013-02-14 09:12:00,
2013-02-14 03:27:00,41.8,33.0,30.02,West,261,0.0,-999.0,71,-99.99,,,0.00,0,weatherlink.com 1.10,2013-02-14 09:27:00,
2013-02-14 03:42:00,41.6,33.0,30.02,West,261,0.0,-999.0,71,-99.99,,,0.00,0,weatherlink.com 1.10,2013-02-14 09:42:00,
2013-02-14 03:57:00,40.8,33.0,30.02,West,261,0.0,-999.0,75,-99.99,,,0.00,0,weatherlink.com 1.10,2013-02-14 09:57:00,
2013-02-14 04:12:00,39.1,33.0,30.02,West,261,0.0,-999.0,79,-99.99,,,0.00,0,weatherlink.com 1.10,2013-02-14 10:12:00,
2013-02-14 04:27:00,37.8,33.0,30.02,West,261,0.0,-999.0,84,-99.99,,,0.00,0,weatherlink.com 1.10,2013-02-14 10:27:00,
2013-02-14 04:42:00,38.9,33.0,30.02,West,261,0.0,-999.0,79,-99.99,,,0.00,0,weatherlink.com 1.10,2013-02-14 10:42:00,
2013-02-14 04:57:00,39.6,33.0,30.02,West,261,0.0,-999.0,77,-99.99,,,0.00,0,weatherlink.com 1.10,2013-02-14 10:57:00,
2013-02-14 05:12:00,39.2,33.0,30.02,West,261,0.0,-999.0,78,-99.99,,,0.00,0,weatherlink.com 1.10,2013-02-14 11:12:00,
2013-02-14 05:28:00,38.6,33.0,30.02,West,261,0.0,-999.0,80,-99.99,,,0.00,0,weatherlink.com 1.10,2013-02-14 11:28:00,
2013-02-14 05:42:00,38.6,33.0,30.02,West,261,0.0,-999.0,79,-99.99,,,0.00,0,weatherlink.com 1.10,2013-02-14 11:42:00,
2013-02-14 05:58:00,38.9,33.0,30.02,West,261,0.0,-999.0,79,-99.99,,,0.00,0,weatherlink.com 1.10,2013-02-14 11:58:00,
2013-02-14 06:12:00,38.7,33.0,30.02,West,261,0.0,-999.0,80,-99.99,,,0.00,0,weatherlink.com 1.10,2013-02-14 12:12:00,
2013-02-14 06:29:00,37.3,33.0,30.02,West,261,0.0,-999.0,85,-99.99,,,0.00,0,weatherlink.com 1.10,2013-02-14 12:29:00,
2013-02-14 06:43:00,37.9,32.0,30.03,West,261,0.0,-999.0,80,-99.99,,,0.00,0,weatherlink.com 1.10,2013-02-14 12:43:00,
2013-02-14 06:58:00,37.2,33.0,30.03,West,261,0.0,-999.0,84,-99.99,,,0.00,0,weatherlink.com 1.10,2013-02-14 12:58:00,
2013-02-14 07:13:00,36.6,33.0,30.04,West,261,0.0,-999.0,86,-99.99,,,0.00,11,weatherlink.com 1.10,2013-02-14 13:13:00,
2013-02-14 07:43:00,36.8,33.0,30.05,West,261,0.0,-999.0,85,-99.99,,,0.00,23,weatherlink.com 1.10,2013-02-14 13:43:00,
2013-02-14 07:58:00,36.3,33.0,30.05,West,261,0.0,-999.0,86,-99.99,,,0.00,54,weatherlink.com 1.10,2013-02-14 13:58:00,
2013-02-14 08:13:00,36.2,34.0,30.07,West,261,0.0,-999.0,90,-99.99,,,0.00,151,weatherlink.com 1.10,2013-02-14 14:13:00,
2013-02-14 08:28:00,38.5,36.0,30.07,West,261,0.0,-999.0,91,-99.99,,,0.00,105,weatherlink.com 1.10,2013-02-14 14:28:00,
2013-02-14 08:43:00,40.4,35.0,30.07,West,261,0.0,-999.0,81,-99.99,,,0.00,51,weatherlink.com 1.10,2013-02-14 14:43:00,
2013-02-14 08:58:00,41.4,36.0,30.07,West,262,0.0,-999.0,81,-99.99,,,0.00,309,weatherlink.com 1.10,2013-02-14 14:58:00,
2013-02-14 09:13:00,41.6,36.0,30.08,West,262,0.0,-999.0,81,-99.99,,,0.00,353,weatherlink.com 1.10,2013-02-14 15:13:00,
2013-02-14 09:28:00,42.0,35.0,30.09,West,262,2.0,-999.0,77,-99.99,,,0.00,397,weatherlink.com 1.10,2013-02-14 15:28:00,
2013-02-14 09:43:00,44.2,36.0,30.08,West,262,2.0,-999.0,73,-99.99,,,0.00,438,weatherlink.com 1.10,2013-02-14 15:43:00,
2013-02-14 09:59:00,47.1,35.0,30.08,WNW,288,0.0,-999.0,64,-99.99,,,0.00,475,weatherlink.com 1.10,2013-02-14 15:59:00,
2013-02-14 10:13:00,49.0,34.0,30.08,WNW,298,5.0,-999.0,56,-99.99,,,0.00,513,weatherlink.com 1.10,2013-02-14 16:13:00,
2013-02-14 10:28:00,50.0,32.0,30.08,NW,308,7.0,-999.0,51,-99.99,,,0.00,554,weatherlink.com 1.10,2013-02-14 16:28:00,
2013-02-14 10:43:00,50.6,32.0,30.08,NW,308,5.0,-999.0,50,-99.99,,,0.00,236,weatherlink.com 1.10,2013-02-14 16:43:00,
2013-02-14 10:59:00,51.0,34.0,30.09,NW,306,5.0,-999.0,52,-99.99,,,0.00,606,weatherlink.com 1.10,2013-02-14 16:59:00,
2013-02-14 11:14:00,52.0,34.0,30.09,NW,311,1.0,-999.0,51,-99.99,,,0.00,649,weatherlink.com 1.10,2013-02-14 17:14:00,
2013-02-14 11:29:00,52.9,34.0,30.08,NW,306,4.0,-999.0,49,-99.99,,,0.00,649,weatherlink.com 1.10,2013-02-14 17:29:00,
2013-02-14 11:44:00,53.7,34.0,30.07,WNW,293,5.0,-999.0,47,-99.99,,,0.00,649,weatherlink.com 1.10,2013-02-14 17:44:00,
2013-02-14 11:59:00,54.3,34.0,30.07,WNW,293,0.0,-999.0,47,-99.99,,,0.00,657,weatherlink.com 1.10,2013-02-14 17:59:00,
2013-02-14 12:14:00,55.5,35.0,30.07,WNW,296,7.0,-999.0,47,-99.99,,,0.00,668,weatherlink.com 1.10,2013-02-14 18:14:00,
2013-02-14 12:29:00,56.1,35.0,30.06,WNW,299,0.0,-999.0,45,-99.99,,,0.00,673,weatherlink.com 1.10,2013-02-14 18:29:00,
2013-02-14 12:44:00,56.9,36.0,30.06,NW,309,0.0,-999.0,45,-99.99,,,0.00,622,weatherlink.com 1.10,2013-02-14 18:44:00,
2013-02-14 12:59:00,56.4,35.0,30.06,WNW,303,7.0,-999.0,44,-99.99,,,0.00,540,weatherlink.com 1.10,2013-02-14 18:59:00,
2013-02-14 13:14:00,57.2,35.0,30.05,WNW,297,2.0,-999.0,43,-99.99,,,0.00,367,weatherlink.com 1.10,2013-02-14 19:14:00,
2013-02-14 13:29:00,57.5,35.0,30.05,NW,307,5.0,-999.0,43,-99.99,,,0.00,629,weatherlink.com 1.10,2013-02-14 19:29:00,
2013-02-14 13:44:00,57.3,35.0,30.05,NW,316,7.0,-999.0,44,-99.99,,,0.00,401,weatherlink.com 1.10,2013-02-14 19:44:00,
2013-02-14 13:59:00,57.3,35.0,30.05,NW,321,9.0,-999.0,44,-99.99,,,0.00,564,weatherlink.com 1.10,2013-02-14 19:59:00,
2013-02-14 14:14:00,57.6,35.0,30.05,WNW,302,0.0,-999.0,43,-99.99,,,0.00,380,weatherlink.com 1.10,2013-02-14 20:14:00,
2013-02-14 14:29:00,57.5,36.0,30.04,NW,313,7.0,-999.0,44,-99.99,,,0.00,439,weatherlink.com 1.10,2013-02-14 20:29:00,
2013-02-14 14:44:00,57.9,35.0,30.04,NW,306,7.0,-999.0,43,-99.99,,,0.00,529,weatherlink.com 1.10,2013-02-14 20:44:00,
2013-02-14 14:59:00,57.9,35.0,30.04,WNW,295,0.0,-999.0,43,-99.99,,,0.00,550,weatherlink.com 1.10,2013-02-14 20:59:00,
2013-02-14 15:14:00,58.2,36.0,30.04,WNW,296,5.0,-999.0,44,-99.99,,,0.00,338,weatherlink.com 1.10,2013-02-14 21:14:00,
2013-02-14 15:29:00,57.7,35.0,30.04,NW,314,7.0,-999.0,43,-99.99,,,0.00,346,weatherlink.com 1.10,2013-02-14 21:29:00,
2013-02-14 15:44:00,57.7,36.0,30.05,NW,312,4.0,-999.0,45,-99.99,,,0.00,171,weatherlink.com 1.10,2013-02-14 21:44:00,
2013-02-14 15:59:00,57.7,36.0,30.05,NW,311,6.0,-999.0,44,-99.99,,,0.00,142,weatherlink.com 1.10,2013-02-14 21:59:00,
2013-02-14 16:14:00,57.5,36.0,30.06,NW,304,2.0,-999.0,45,-99.99,,,0.00,104,weatherlink.com 1.10,2013-02-14 22:14:00,
2013-02-14 16:29:00,57.8,36.0,30.07,NW,304,4.0,-999.0,45,-99.99,,,0.00,158,weatherlink.com 1.10,2013-02-14 22:29:00,
2013-02-14 16:44:00,57.3,36.0,30.07,NW,304,0.0,-999.0,45,-99.99,,,0.00,127,weatherlink.com 1.10,2013-02-14 22:44:00,
2013-02-14 16:59:00,57.3,36.0,30.08,NW,304,0.0,-999.0,46,-99.99,,,0.00,70,weatherlink.com 1.10,2013-02-14 22:59:00,
2013-02-14 17:15:00,56.8,35.0,30.08,WNW,301,0.0,-999.0,45,-99.99,,,0.00,60,weatherlink.com 1.10,2013-02-14 23:15:00,
2013-02-14 17:29:00,55.6,36.0,30.08,WNW,302,0.0,-999.0,48,-99.99,,,0.00,32,weatherlink.com 1.10,2013-02-14 23:29:00,
2013-02-14 17:44:00,54.7,36.0,30.09,NW,305,8.0,-999.0,50,-99.99,,,0.00,5,weatherlink.com 1.10,2013-02-14 23:44:00,
2013-02-14 17:59:00,54.0,36.0,30.09,NW,306,9.0,-999.0,50,-99.99,,,0.00,0,weatherlink.com 1.10,2013-02-14 23:59:00,
2013-02-14 18:14:00,53.4,35.0,30.10,NW,317,5.0,-999.0,50,-99.99,,,0.00,0,weatherlink.com 1.10,2013-02-15 00:14:00,
2013-02-14 18:29:00,52.6,35.0,30.10,NW,313,5.0,-999.0,51,-99.99,,,0.00,0,weatherlink.com 1.10,2013-02-15 00:29:00,
2013-02-14 18:44:00,52.2,33.0,30.11,NW,311,6.0,-999.0,49,-99.99,,,0.00,0,weatherlink.com 1.10,2013-02-15 00:44:00,
2013-02-14 18:59:00,51.9,33.0,30.11,NW,311,6.0,-999.0,49,-99.99,,,0.00,0,weatherlink.com 1.10,2013-02-15 00:59:00,
2013-02-14 19:14:00,51.4,33.0,30.11,NW,311,9.0,-999.0,49,-99.99,,,0.00,0,weatherlink.com 1.10,2013-02-15 01:14:00,
2013-02-14 19:30:00,50.8,33.0,30.12,NW,311,2.0,-999.0,50,-99.99,,,0.00,0,weatherlink.com 1.10,2013-02-15 01:30:00,
2013-02-14 19:44:00,50.4,33.0,30.12,NW,311,4.0,-999.0,51,-99.99,,,0.00,0,weatherlink.com 1.10,2013-02-15 01:44:00,
2013-02-14 19:59:00,49.8,33.0,30.12,NW,306,7.0,-999.0,52,-99.99,,,0.00,0,weatherlink.com 1.10,2013-02-15 01:59:00,
2013-02-14 20:14:00,49.2,33.0,30.13,NW,305,8.0,-999.0,53,-99.99,,,0.00,0,weatherlink.com 1.10,2013-02-15 02:14:00,
2013-02-14 20:29:00,48.7,33.0,30.13,NW,305,5.0,-999.0,54,-99.99,,,0.00,0,weatherlink.com 1.10,2013-02-15 02:29:00,
2013-02-14 20:45:00,48.5,32.0,30.14,NW,306,6.0,-999.0,54,-99.99,,,0.00,0,weatherlink.com 1.10,2013-02-15 02:45:00,
2013-02-14 21:00:00,47.4,33.0,30.14,NW,306,7.0,-999.0,57,-99.99,,,0.00,0,weatherlink.com 1.10,2013-02-15 03:00:00,
2013-02-14 21:14:00,46.8,33.0,30.14,NW,308,6.0,-999.0,59,-99.99,,,0.00,0,weatherlink.com 1.10,2013-02-15 03:14:00,
2013-02-14 21:29:00,46.5,33.0,30.16,NW,311,11.0,-999.0,60,-99.99,,,0.00,0,weatherlink.com 1.10,2013-02-15 03:29:00,
2013-02-14 21:45:00,46.4,33.0,30.16,NW,314,7.0,-999.0,60,-99.99,,,0.00,0,weatherlink.com 1.10,2013-02-15 03:45:00,
2013-02-14 21:59:00,46.5,33.0,30.16,NW,315,7.0,-999.0,60,-99.99,,,0.00,0,weatherlink.com 1.10,2013-02-15 03:59:00,
2013-02-14 22:15:00,46.7,33.0,30.17,NW,319,8.0,-999.0,60,-99.99,,,0.00,0,weatherlink.com 1.10,2013-02-15 04:15:00,
2013-02-14 22:30:00,46.5,32.0,30.17,NW,315,5.0,-999.0,58,-99.99,,,0.00,0,weatherlink.com 1.10,2013-02-15 04:30:00,
2013-02-14 22:45:00,46.3,33.0,30.18,NW,316,6.0,-999.0,60,-99.99,,,0.00,0,weatherlink.com 1.10,2013-02-15 04:45:00,
2013-02-14 23:00:00,46.3,33.0,30.18,NW,317,10.0,-999.0,60,-99.99,,,0.00,0,weatherlink.com 1.10,2013-02-15 05:00:00,
2013-02-14 23:15:00,46.0,33.0,30.18,NW,309,6.0,-999.0,60,-99.99,,,0.00,0,weatherlink.com 1.10,2013-02-15 05:15:00,
2013-02-14 23:30:00,45.8,32.0,30.18,NW,309,11.0,-999.0,60,-99.99,,,0.00,0,weatherlink.com 1.10,2013-02-15 05:30:00,
2013-02-14 23:45:00,45.7,34.0,30.18,NW,313,9.0,-999.0,63,-99.99,,,0.00,0,weatherlink.com 1.10,2013-02-15 05:45:00,